www.pogodaiklimat.ru

Погода и климат >> Архив погоды >> Россия >> Камчатский край >> Пущино


ПОГОДА в Пущино

  • Прогноз погоды в Пущино
  • Монитор погоды в Пущино

АРХИВ ПОГОДЫ в Пущино

Время (UTC), дата Ветер
(напр.,м/с)
 
Видим.   Явления Облачность Т
(С)
Тd
(С)
f
(%)
Тe
(С)
Тes
(С)
Комфортность P
(гПа)
Po
(гПа)
Тmin
(С)
Tmax
(С)
R
(мм)
R24
(мм)
S
(см)
03 17.02 ЮЗ 3 20 км 10/0
[Ac trans Ci fib]
-9.8 -18.5 49 -15 -15 991.4 953.3
06 17.02 ЮЗ 2 20 км осадки на расстоянии 10/1 1000 м
[Cb cap Ac trans Ci fib]
-11.2 -19.1 52 -16 -16 993.0 954.7
09 17.02 ЮЗ 1 20 км 10/0
[Ac trans Ci fib]
-20.1 -22.0 85 -23 -23 995.8 956.0 -9.5
12 17.02 З 3 20 км 10/0
[Cs]
-17.5 -20.8 75 -25 -25 996.7 957.3
15 17.02 З 3 20 км 10/0
[Ci fib]
-18.7 -22.2 74 -26 -26 996.9 957.3
18 17.02 З 3 20 км 10/0
[Ci fib]
-19.7 -23.4 72 -27 -27 998.5 958.7
21 17.02 З 3 20 км 10/0
[Ac As]
-17.4 -21.4 71 -24 -24 998.9 959.4 -21.0 152
00 18.02 ЮЗ 4 20 км 10/1 1000 м
[Sc Cs]
-13.3 -20.4 55 -21 -21 1000.2 961.3
03 18.02 ЮЗ 4 20 км 10/0
[Ci fib]
-10.3 -19.7 46 -17 -17 999.8 961.3
06 18.02 ЮЗ 4 20 км 8/0
[Ac trans Ci fib]
-10.9 -19.5 49 -18 -18 1001.3 962.7
09 18.02 З 3 20 км 10/0
[Ci fib]
-16.2 -20.7 68 -23 -23 1004.8 965.3 -10.1
12 18.02 З 3 20 км 10/3 1000 м
[Sc Ci]
-18.3 -23.2 65 -26 -26 1006.6 966.7
15 18.02 З 3 20 км 10/1 1000 м
[Sc Cs]
-16.4 -21.4 65 -23 -23 1007.7 968.0
18 18.02 З 3 20 км 10/0
[Cs]
-16.9 -21.4 68 -24 -24 1009.1 969.3
21 18.02 З 4 20 км 10/0
[Ac As Cs]
-16.4 -20.3 72 -25 -25 1009.0 969.3 -18.7 149
00 19.02 ЮЗ 3 20 км 10/3 1000 м
[Sc Ac As]
-11.9 -17.1 65 -18 -18 1009.8 970.7
03 19.02 ЮЗ 4 20 км 10/3 1000 м
[Sc Ac As]
-9.8 -15.9 61 -17 -17 1009.5 970.7
06 19.02 ЮЗ 3
{10}
20 км 10/1 1000 м
[Sc Ac As Ci fib]
-8.5 -15.7 56 -14 -14 1010.6 972.0
09 19.02 З 2 20 км 6/0
[Ac trans Ci fib]
-16.5 -19.4 78 -22 -22 1011.9 972.0 -8.5
12 19.02 З 3 20 км 1/0
[Ac trans]
-18.4 -21.0 80 -26 -26 1013.5 973.3
15 19.02 З 2 20 км ясно -22.5 -25.0 80 -29 -29 1014.2 973.3
18 19.02 штиль 0 20 км ясно -22.2 -25.6 74 -22 -22 1014.1 973.3
21 19.02 З 3 20 км 10/0
[Ci fib]
-19.8 -23.0 76 -27 -27 1013.2 972.8 -23.5 147
00 20.02 ЮЗ 2 20 км 4/0
[Ci fib]
-11.5 -17.7 60 -16 -14 1012.4 973.3
03 20.02 ЮЗ 3 20 км 4/0
[Ci fib]
-8.8 -18.3 46 -14 -13 1010.7 972.0
06 20.02 Ю 1 20 км 1/1 1000 м
[Sc]
-9.7 -21.0 39 -12 -12 1010.8 972.0
09 20.02 ЮЗ 1 20 км ясно -22.4 -26.4 70 -26 -26 1014.2 973.3 -7.7
12 20.02 ЮЗ 2 20 км ясно -23.0 -26.9 70 -29 -29 1014.3 973.3
15 20.02 З 1 20 км ясно -29.0 -32.7 70 -33 -33 опасность
обморожения
1015.3 973.3
18 20.02 З 1 20 км ясно -31.0 -34.9 68 -35 -35 опасность
обморожения
1015.7 973.3
21 20.02 З 2 20 км ясно -32.1 -36.5 65 -40 -40 опасность
обморожения
1014.6 972.0 -32.3 147
00 21.02 Ю 1 20 км 10/0
[As op Ci fib]
-15.9 -22.9 55 -19 -16 1010.8 971.0 -32.4
03 21.02 В 1 20 км 10/0
[Ac trans Ci fib]
-12.4 -20.9 49 -15 -15 1009.9 970.7
06 21.02 В 1 20 км 10/0
[Ac trans Ci fib]
-13.0 -20.3 54 -15 -15 1010.0 970.7
09 21.02 З 1 20 км ясно -24.9 -27.7 77 -28 -28 1011.9 970.7 -11.0
12 21.02 З 2 20 км 10/0
[Ac trans Ci fib]
-20.8 -24.5 72 -27 -27 1009.7 969.3
15 21.02 З 2 2000 м слаб. ливневой снег 10/10 270 м
[Cb cap]
-19.5 -23.2 72 -25 -25 1008.4 968.2
18 21.02 З 1 4000 м слаб. ливневой снег 10/10 420 м
[Cb cap]
-23.6 -27.0 73 -27 -27 1008.7 967.8
21 21.02 З 2 20 км {ливн. осадки} ясно -27.8 -31.0 74 -35 -35 опасность
обморожения
1008.9 967.3 -28.9 0.2 147
00 22.02 ЮВ 1 20 км {ливн. осадки} ясно -14.9 -23.7 47 -17 -13 1006.1 966.7
03 22.02 ЮЗ 3 20 км ясно -10.7 -21.6 40 -16 -14 1004.0 965.3
06 22.02 ЮЗ 2 20 км ясно -11.8 -22.4 41 -16 -16 1002.8 964.0
09 22.02 З 2 20 км ясно -21.8 -25.9 69 -28 -28 1004.4 964.0 -10.3
12 22.02 З 1 20 км ясно -25.6 -28.8 74 -29 -29 1005.0 964.0
15 22.02 штиль 0 20 км ясно -28.2 -31.5 73 -28 -28 1004.1 962.7
18 22.02 З 3 20 км ясно -22.0 -26.8 65 -30 -30 1001.6 961.3
21 22.02 Ю 1 20 км 3/0
[Ci fib]
-29.7 -33.2 71 -34 -34 опасность
обморожения
1001.9 960.3 -31.0 146
00 23.02 В 1 20 км 3/0
[Ci fib]
-14.1 -23.7 44 -17 -13 999.0 960.0
03 23.02 З 1 20 км 1/0
[Ci fib]
-9.3 -25.2 26 -11 -7 996.9 958.7
06 23.02 СЗ 2 20 км ясно -10.6 -26.8 25 -15 -15 997.1 958.7
09 23.02 штиль 0 20 км ясно -25.1 -30.2 62 -25 -25 1000.8 960.0 -7.6
12 23.02 ЮЗ 1 20 км ясно -28.8 -32.7 69 -33 -33 опасность
обморожения
1001.4 960.0
15 23.02 З 1 20 км ясно -30.5 -34.2 70 -35 -35 опасность
обморожения
1001.7 960.0
18 23.02 штиль 0 20 км ясно -31.2 -34.7 71 -31 -31 опасность
обморожения
1001.8 960.0
21 23.02 штиль 0 20 км 3/0
[Ac trans Ci fib]
-33.4 -37.2 68 -33 -33 опасность
обморожения
1001.0 958.7 -33.9 143
00 24.02 ЮВ 1 20 км 10 баллов -15.8 -28.0 34 -18 -18 997.9 958.7

 

Местоположение метеостанции Пущино (Камчатский край, Россия): широта 54.18 долгота 158.00 высота над уровнем моря 303 м.

В архиве по умолчанию представлена погода в Пущино за последнюю неделю. Архивные данные за месяц целиком и за предыдущие месяцы, начиная с января 2011 года, Вы можете получить, выбрав интересующий диапазон дат из раскрывающегося списка и нажав кнопку "Ввод!".


*Определитесь, кто Вы:
робот инопланетянин человек

Внимание! Время в таблицах - всемирное. Для получения местного времени необходимо прибавить поправку, которая равна 12 ч.

Смотрите также архив погоды в соседних городах и на ближайших метеорологических станциях:

Погода в Мильково (Камчатский край, Россия) (64 км)
Погода в Начиках (Камчатский край, Россия) (120 км)
Погода в Долиновке (Камчатский край, Россия) (123 км)
Погода в Сосновке (Камчатский край, Россия) (124 км)
Погода в Семячике (Камчатский край, Россия) (124 км)
Погода в Петропавловск-Камч. 2 (Камчатский край, Россия) (127 км)
Погода в Соболево (Камчатский край, Россия) (137 км)
Погода в Петропавловск-Камчатском (Камчатский край, Россия) (151 км)
Погода в Петропавловском Маяке (Камчатский край, Россия) (152 км)
Погода в Большерецке (Камчатский край, Россия) (188 км)

Пояснения к столбцам:

Ветер - указаны скорость ветра в м/с - средняя за 10 мин, порывы в срок и между сроками (в фигурных скобках) и направление, откуда дует ветер: С - северный, СВ - северо-восточный, В - восточный, ЮВ - юго-восточный, Ю - южный, ЮЗ - юго-западный, З - западный, СЗ - северо-западный.
Видимость - горизонтальная дальность видимости в метрах или километрах. При видимости от 1 до 10 км при отсутствии осадков обычно наблюдается дымка, при ухудшении видимости до 1 км и менее - туман. В сухую погоду видимость может ухудшаться дымом, пылью или мглою.
Явления - указаны атмосферные явления, наблюдавшиеся в срок или в последний час перед сроком; фигурными скобками обозначены явления, наблюдавшиеся между сроками (за 1-3 часа до срока); квадратными скобками обозначены град или гололедные отложения с указанием их диаметра в мм.
Облачность - указаны через наклонную черту общая и нижняя облачность в баллах и высота нижней границы облаков в метрах; квадратными скобками обозначены формы облаков: Ci - перистые, Cs - перисто-слоистые, Cc - перисто-кучевые, Ac - высококучевые, As - высокослоистые, Sc - слоисто-кучевые, Ns - слоисто-дождевые, Cu - кучевые, Cb - кучево-дождевые. Подробнее классификацию облаков см. в Атласе облаков (PDF).
T - Температура воздуха - температура, измеренная на высоте 2 м над землей.
Td - Температура точки росы - температура, при понижении до которой содержащийся в воздухе водяной пар достигнет насыщения.
f - Относительная влажность воздуха - влажноcть воздуха, измеренная на высоте 2 м над землей.
Te - Эффективная температура - температура, которую ощущает одетый по сезону человек в тени. Характеристика душности погоды. При расчете учитывается влияние влажности воздуха и скорости ветра на теплоощущения человека.
Tes - Эффективная температура на солнце - температура, которую ощущает человек, с поправкой на солнечный нагрев. Характеристика знойности погоды. Зависит от высоты солнца над горизонтом, облачности и скорости ветра. Ночью, в пасмурную погоду, а также при ветре 12 м/с и более поправка равна нулю.
P - Атмосферное давление - приведенное к уровню моря атмосферное давление.
Po - Атмосферное давление - измеренное на уровне метеостанции атмосферное давление.
Tmin - Минимальная температура - минимум температуры воздуха на высоте 2 м над землей.
Tmax - Максимальная температура - максимум температуры воздуха на высоте 2 м над землей.
R - Количество осадков - Количество выпавших осадков за период времени, мм. При наведении курсора мыши на число - период времени, за который выпало указанное количество осадков.
R24 - Количество осадков - Количество выпавших осадков за 24 часа, мм.
S - Снежный покров - Высота снежного покрова, см. При наведении курсора мыши на число - состояние снежного покрова и степень покрытия местности в баллах.